Find Yaogan 43-01-02

NORAD ID: 60459 Int'l Des: 2024-148 Owner: ZZB Country: CN Constellation: yaogan operational
LEOCIRCULAR

实时位置

正在加载3D地球...

关于 Yaogan 43-01-02

正在加载描述...

即将过境

Passes for default location (London). Set your location on the main map for personalized predictions.

高度历史

Loading altitude history...

两行轨道根数

1 60459U 24148B 26107.27195520 .00007513 00000-0 22006-3 0 9999
2 60459 34.9918 164.3507 0006949 4.6541 355.4240 15.34454736 93067
Epoch: Apr 17, 2026 • Age: 7 hours

当前状态

高度 470.7 km
速度 7.63 km/s
星下点 -21.90°S, 34.36°W
发射日期 Aug 16, 2024
运行时间 1.6 years
类型 military

技术详情

分类 Payload
质量 300.00 kg
干质量 300.00 kg
总质量 300.00 kg
长度 2.50 m
直径 2.50 m
跨度 5.00 m
形状 Box + 2 Pan
制造商 SAST
阶段状态 In Orbit
所有者/国家 ZZB/CN

Most Searched